This is the latest recevied weather packets stored in our database for station/object K3RUP-1. If no packets are shown the sender has not sent any weather packets the latest 10 day(s).
| Time | Temp. | Humidity | Pressure | Rain* | Wind** | Luminosity | Snow |
|---|---|---|---|---|---|---|---|
| 1777738058 | 13.33° C | 52% | 1013.3 hPa | 0 mm | - | 232 W/m² | - |
| 1777737757 | 13.33° C | 54% | 1013.5 hPa | 0 mm | - | 258 W/m² | - |
| 1777737455 | 12.78° C | 55% | 1013.8 hPa | 0 mm | - | 222 W/m² | - |
| 1777737152 | 13.33° C | 55% | 1013.7 hPa | 0 mm | - | 219 W/m² | - |
| 1777736847 | 13.33° C | 55% | 1013.9 hPa | 0 mm | - | 197 W/m² | - |
| 1777736229 | 12.78° C | 57% | 1014 hPa | 0 mm | - | 255 W/m² | - |
| 1777735926 | 13.33° C | 55% | 1013.9 hPa | 0 mm | - | 230 W/m² | - |
| 1777735623 | 13.33° C | 57% | 1014.1 hPa | 0 mm | - | 355 W/m² | - |
| 1777735321 | 13.33° C | 59% | 1013.6 hPa | 0 mm | - | 517 W/m² | - |
| 1777735018 | 12.78° C | 57% | 1013.8 hPa | 0 mm | - | 541 W/m² | - |
| 1777734715 | 12.78° C | 58% | 1013.9 hPa | 0 mm | - | 325 W/m² | - |
| 1777734413 | 12.78° C | 60% | 1013.5 hPa | 0 mm | - | 301 W/m² | - |
| 1777734109 | 12.22° C | 60% | 1013.6 hPa | 0 mm | - | 376 W/m² | - |
| 1777733805 | 12.22° C | 60% | 1013.8 hPa | 0 mm | - | 247 W/m² | - |
| 1777733502 | 12.22° C | 59% | 1013.7 hPa | 0 mm | - | 239 W/m² | - |
| 1777733198 | 12.22° C | 61% | 1013.7 hPa | 0 mm | - | 209 W/m² | - |
| 1777732895 | 12.78° C | 60% | 1013.5 hPa | 0 mm | - | 210 W/m² | - |
| 1777732591 | 12.78° C | 63% | 1013.7 hPa | 0 mm | - | 224 W/m² | - |
| 1777732289 | 12.22° C | 63% | 1013.6 hPa | 0 mm | - | 218 W/m² | - |
| 1777731986 | 12.22° C | 63% | 1013.5 hPa | 0 mm | - | 183 W/m² | - |
| 1777731683 | 12.22° C | 62% | 1013.3 hPa | 0 mm | - | 181 W/m² | - |
| 1777731380 | 11.67° C | 63% | 1013.4 hPa | 0 mm | - | 209 W/m² | - |
| 1777731078 | 11.67° C | 64% | 1013.2 hPa | 0 mm | - | 234 W/m² | - |
| 1777730777 | 11.11° C | 64% | 1013.4 hPa | 0 mm | - | 202 W/m² | - |
| 1777730472 | 11.67° C | 65% | 1013.5 hPa | 0 mm | - | 165 W/m² | - |
* Rain latest hour (hover to see other rain measurements)
** Current wind speed in m/s (hover to see current wind gust speed)